Ciel 2

operational
NORAD ID: 33453 Int'l Des: 2008-063 Owner: CIEL Country: CA
HEOCIRCULAR

Ciel 2について

説明を読み込み中...

リアルタイム位置

3D地球を読み込み中...

次回通過

高度履歴

Altitude vs Time

uPlot chart will show altitude changes over time

軌道要素

1 33453U 08063A 26063.30461404 -.00000028 00000-0 00000-0 0 9995
2 33453 2.5169 82.2418 0010017 301.9684 275.8352 0.99023724 62981
Epoch: Mar 4, 2026 • Age: 23 hours

現在のステータス

高度 36176.1 km
速度 3.06 km/s
衛星直下点 2.53°N, 25.46°E
打ち上げ日 Dec 10, 2008
運用期間 17.2 years
タイプ other

技術仕様

分類 Payload
質量 5625.00 kg
乾燥質量 3500.00 kg
総質量 5625.00 kg
長さ 7.10 m
直径 3.00 m
スパン 35.00 m
形状 Box + 2 Pan
製造者 THALES
バスタイプ Spacebus 4000C4
フェーズステータス In Orbit
所有者/国 CIEL/CA

大規模コンステレーション

Loading constellations...